Location: Bern�tre
(50.1974°N, 2.0915°E)
Time: 08:56:46
(UTC+00:00)

Meteor 1-24 Rocket - Pass Details

Date: 18 September 2020
Orbit: 790 x 927 km, 81.2° (Epoch: 24 October)

Event Time Altitude Azimuth Distance (km) Brightness Sun altitude
Rises 20:47:41 0° 345° (NNW) 3,344 7.6 -26.0°
Reaches altitude 10° 20:50:04 10° 343° (NNW) 2,423 6.8 -26.2°
Maximum altitude 20:55:29 65° 262° (W) 920 3.9 -26.9°
Enters shadow 20:56:34 53° 211° (SSW) 1,030 4.0 -27.0°
